Preview of NWS' New Version of Forecast
This preview is not operational and should not be used for support decisions.

Regional Weather Roundup (RWR)

Issued by Gray - Portland, ME (GYX)

                            
000
ASUS41 KGYX 210805
RWRGYX
WEATHER ROUNDUP FOR MAINE AND NEW HAMPSHIRE
NATIONAL WEATHER SERVICE GRAY ME
400 AM EDT WED AUG 21 2019

MEZ002-005-006-010-012-015-018-020-021-024-026-027-029-210900-
MAINE
  
CITY           SKY/WX    TMP DP  RH WIND       PRES   REMARKS
PORTLAND       FAIR      61  58  90 CALM      30.01S                  
SANFORD        FAIR      55  54  96 CALM      30.02S                  
BAR HARBOR     FAIR      58  58 100 CALM      30.03F                  
WISCASSET      MOCLDY    56  54  93 CALM      30.03S                  
ROCKLAND       FOG       57  57 100 CALM      30.02S VSB 1/2          
FRYEBURG       FAIR      54  53  97 CALM      30.02S                  
LEWISTONAUBURN FAIR      55  54  96 CALM      30.02S                  
AUGUSTA        FAIR      59  57  93 CALM      30.02S                  
WATERVILLE     FAIR      58  57  97 CALM      29.98F                  
BANGOR         FAIR      59  57  93 S3        30.01F                  
GREENVILLE     NOT AVBL                                               
MILLINOCKET    FAIR      55  53  93 E3        29.99F                  
HOULTON        FAIR      58  54  86 S6        29.97F                  
PRESQUE ISLE   FAIR      54  51  90 CALM      29.97F                  
FRENCHVILLE    FAIR      59  52  77 S6        29.95F                  
CARIBOU        FAIR      58  53  84 S3        29.96S                  
$$

NHZ002-005-008-009-011-012-014-210900-
NEW HAMPSHIRE
  
CITY           SKY/WX    TMP DP  RH WIND       PRES   REMARKS
ROCHESTER      FAIR      58  56  93 NW3       30.01F                  
NASHUA         FAIR      63  62  97 CALM      30.02F                  
MANCHESTER     FAIR      66  61  84 CALM      30.00F                  
CONCORD        FAIR      58  56  93 NE3       30.02F                  
LACONIA        FAIR      60  59  96 CALM      30.03R                  
PLYMOUTH       FAIR      54  53  97 CALM      30.03F FOG              
BERLIN         NOT AVBL                                               
WHITEFIELD     FAIR      49  46  90 CALM      30.03S                  
JAFFREY        FAIR      60  57  89 CALM      30.05F                  
KEENE          FAIR      58  58 100 CALM      30.04F                  
LEBANON        FAIR      57  52  83 CALM      30.01F                  
MT WASHINGTON  NOT AVBL                                               
$$

VTZ005-007-008-210900-
VERMONT
  
CITY           SKY/WX    TMP DP  RH WIND       PRES   REMARKS
ST JOHNSBURY     N/A     56  56 100 MISG      30.00S                  
MONTPELIER     FAIR      55  55 100 CALM      30.05S                  
BURLINGTON     FAIR      63  57  81 CALM      29.96F                  
$$

MAZ007-012-024-CTZ003-RIZ002-NYZ038-NYZ072-210900-
SOUTHERN NEW ENGLAND AND NY
  
CITY           SKY/WX    TMP DP  RH WIND       PRES   REMARKS
BOSTON         FAIR      70  62  76 S7        30.01F                  
WORCESTER      FAIR      65  62  90 SW7       30.04F                  
NANTUCKET      FAIR      68  68 100 S5        30.05F                  
PROVIDENCE     FAIR      67  64  90 CALM      30.03F                  
HARTFORD       FAIR      69  65  86 S3        30.01F                  
ALBANY         MOCLDY    70  64  81 CALM      29.98F                  
NEW YORK CITY  MOCLDY    78  73  84 S6        30.00F                  
$$

ANZ081-ANZ082-ANZ150-NHZ014-MEZ023>029-210900-
COASTAL MARINE OBSERVATIONS
  
STATION/POSITION TIME  TEMP    WIND        PRES    WAVE
                       AIR SEA DIR/SP/G            HT/PER
                 (UTC) (F)     (DEG/KT/KT) (MB)    (FT/S)
MATINICUS ROCK   0750   63                 1016.3F
ISLE OF SHOALS   0700   68     230/  6/  6 1016.0F
JEFFREYS LEDGE   0738      69                N/A     2/11
CASHES LEDGE BUO 0750   66 63  190/ 10/ 12 1017.0F   2/11
GEORGES BANK BUO 0750   67 69  230/  4/  4 1018.6F   2/10
$$

.............KEY..............
   WCI - WIND CHILL
   TC  - TEMPERATURE IN CELSIUS
   VSB - VISIBILITY IN MILES
   HX  - HEAT INDEX
   FAIR- INDICATES FEW OR NO CLOUDS BELOW 12,000 FT, WITH NO 
         SIGNIFICANT WEATHER AND/OR OBSTRUCTIONS TO VISIBILITY.